Location: Frydek-Mistek
(49.6830°N, 18.3330°E)
Time: 16:22:57
(UTC+01:00)

Courier 1B Rocket - Visible Passes

Search period start: 18 December 2014 00:00
Search period end: 28 December 2014 00:00
Orbit: 920 x 1202 km, 28.2° (Epoch: 15 December)

Date Brightness Start Highest point End Pass type
(mag) Time Alt. Az. Time Alt. Az. Time Alt. Az.
18 Dec 7.5 05:41:28 10° SSW 05:43:33 11° S 05:45:41 10° SSE visible
19 Dec 7.5 06:32:58 10° SSW 06:35:00 11° S 06:37:04 10° SSE visible
20 Dec 7.4 05:32:31 10° SSW 05:34:26 11° S 05:36:23 10° SSE visible
21 Dec 7.3 04:32:46 10° S 04:33:54 10° S 04:35:01 10° SSE visible
22 Dec 7.4 05:24:30 10° SSW 05:25:19 10° S 05:26:09 10° S visible
23 Dec 7.3 04:24:10 10° S 04:24:48 10° S 04:25:35 10° S visible
